Probability
0 0 0 0 0 0 0 0 0 0 0 0 0 1 2 4 3 1 1 2 2 1 0 0 0 0 0 0 0 0 0 0 0 0 0 0 0 0 0 0 0 1 1
0 0 0 0 0 0 0 0 0 0 0 0 0 0 1 3 4 2 0 1 1 0 0 0 0 0 0 0 0 0 0 0 0 0 0 0 0 0 0 0 0 0 1
0 0 0 0 0 0 0 0 0 0 1 0 0 0 1 2 3 2 1 0 0 0 0 1 1 0 0 0 0 0 0 0 0 0 0 0 0 0 0 0 0 0 0
0 0 0 0 0 0 0 0 0 0 0 0 0 0 0 1 1 2 2 1 0 0 0 1 1 1 0 1 2 1 0 1 1 1 0 0 0 0 0 0 0 1 1
0 0 0 0 0 0 0 0 0 0 0 0 0 0 0 1 1 1 2 2 1 0 0 1 1 1 1 3 4 3 1 1 3 2 1 0 0 0 1 1 1 2 2
0 0 0 0 0 0 0 0 0 0 0 0 0 0 0 0 0 0 2 3 2 1 0 0 0 0 2 5 7 7 4 3 4 3 1 0 0 1 2 3 3 4 4
0 0 0 0 0 0 0 0 0 0 0 0 0 0 0 0 0 0 2 4 3 2 2 1 0 0 2 4 6 8 7 5 4 3 2 1 1 2 3 5 5 6 6
0 0 0 0 0 0 0 0 0 0 0 0 0 0 0 0 0 0 1 3 3 3 4 3 1 1 1 2 3 5 6 5 5 4 4 3 2 3 5 5 5 6 7
0 0 0 0 0 0 0 0 0 0 0 0 0 0 0 0 0 0 0 1 2 3 4 4 2 1 1 2 2 2 3 4 5 5 6 5 3 3 5 4 4 6 7
0 0 0 0 0 0 0 0 0 0 0 0 0 0 0 0 0 0 0 0 1 2 3 2 1 1 3 5 4 2 1 2 4 6 6 5 3 3 4 4 4 5 5
0 0 0 0 0 0 0 0 0 0 0 0 0 0 0 0 0 0 0 0 0 1 1 1 1 2 5 7 6 2 0 0 3 5 6 5 4 3 4 4 4 4 3
0 0 0 0 0 0 0 0 0 0 0 0 0 0 0 0 0 0 0 0 0 0 0 1 2 3 6 6 4 2 0 0 1 3 4 4 4 4 3 3 3 2 2
0 0 0 0 0 0 0 0 0 0 0 0 0 0 0 0 0 0 0 0 0 0 0 2 2 3 4 4 2 1 0 0 0 1 1 1 2 2 2 2 2 1 1
0 0 0 0 0 0 0 0 0 0 0 0 0 0 0 0 0 0 0 0 0 0 0 1 3 3 4 3 1 0 0 0 0 0 0 0 0 0 1 2 2 1 1
0 0 0 0 0 0 0 0 0 0 0 0 0 0 0 0 0 0 0 0 1 0 0 2 3 3 3 3 1 0 0 0 0 0 0 0 0 0 0 1 1 1 2
0 0 0 0 0 0 0 0 0 0 0 0 0 0 0 0 0 0 0 0 0 0 1 2 3 2 1 1 0 0 0 0 0 0 0 0 0 0 0 0 0 1 1
0 0 0 0 0 0 0 0 0 0 0 0 0 0 0 0 0 0 0 0 0 0 1 1 1 1 0 0 0 0 0 0 0 1 1 1 0 0 0 0 0 0 0
0 0 0 0 0 0 0 0 0 0 0 0 0 0 0 0 0 0 0 0 0 0 0 0 0 0 0 0 0 0 0 0 0 2 2 1 0 0 0 0 0 0 0
0 0 0 0 0 0 0 0 0 0 0 0 0 0 0 0 0 0 0 0 0 0 0 0 0 0 0 0 0 0 0 0 0 1 2 2 1 0 0 0 0 0 0
0 0 0 0 0 0 0 0 0 0 0 0 0 0 0 0 0 0 0 0 0 0 0 0 0 0 0 0 0 0 0 0 0 0 1 1 1 0 0 0 0 0 0
0 0 0 0 0 0 0 0 0 0 0 0 0 0 0 0 0 0 0 0 0 0 0 0 0 0 0 0 0 0 0 0 0 0 0 0 0 0 0 0 0 0 0
0 0 0 0 0 0 0 0 0 0 0 0 0 0 0 0 0 0 0 0 0 0 0 0 0 0 0 0 0 0 0 0 0 0 0 0 0 0 0 0 0 0 0
0 0 0 0 0 0 0 0 0 0 0 0 0 0 0 0 0 0 0 0 0 0 0 0 0 0 0 0 0 0 0 0 0 0 0 0 0 0 0 0 0 0 0
0 0 0 0 0 0 0 0 0 0 0 0 0 0 0 0 0 0 0 0 0 0 0 0 0 0 0 0 0 0 0 0 0 0 0 0 0 0 0 0 0 0 0
0 0 0 0 0 0 0 0 0 0 0 0 0 0 0 0 0 0 0 0 0 0 0 0 0 0 0 0 0 0 0 0 0 0 0 0 0 0 0 0 0 0 0
0 0 0 0 0 0 0 0 0 0 0 0 0 0 0 0 0 0 0 0 0 0 0 0 0 0 0 0 0 0 0 0 0 0 0 0 0 0 0 0 0 0 0
Wind_Speed
2 2 1 1 1 1 1 1 2 3 2 3 2 2 3 3 3 2 3 6 7 7 6 6 7 8 8 8 8 8 8 9 9 9 9 9 9 8 8 8 8 8 8
2 2 2 1 1 1 1 2 2 2 2 2 3 3 3 3 3 3 3 5 7 8 8 7 7 9 9 9 9 9 9 10 10 10 9 9 9 9 8 8 8 7 7
2 2 2 2 2 2 2 2 2 1 2 2 3 4 3 3 3 3 3 4 4 7 8 8 8 9 10 10 10 10 10 10 10 10 10 10 9 9 8 8 7 7 7
4 2 2 2 3 2 2 2 1 1 2 2 2 3 3 2 3 3 3 3 3 4 6 8 8 9 10 10 10 11 11 11 11 11 11 10 10 9 9 8 7 8 7
4 3 2 2 3 2 2 3 2 1 1 2 3 3 2 2 2 3 3 3 3 4 4 6 8 9 9 10 10 10 11 12 12 12 11 11 10 10 9 8 8 8 7
4 3 2 2 2 1 1 2 2 2 2 2 3 2 2 2 2 2 2 2 2 3 5 6 5 5 8 9 9 10 11 12 13 13 12 12 11 10 10 9 8 8 8
4 3 3 2 1 1 1 2 2 2 2 1 1 2 2 1 1 1 1 1 1 2 3 5 4 4 4 8 9 10 10 11 12 13 13 12 11 10 10 10 9 9 9
4 4 3 3 2 1 1 2 1 1 2 1 0 1 1 2 2 1 1 1 1 1 2 4 4 5 5 4 6 9 9 10 11 12 12 12 11 11 11 10 10 9 10
2 2 3 3 3 2 1 2 1 1 1 2 0 1 1 1 1 1 1 1 1 1 1 2 3 4 5 5 5 7 8 8 10 11 11 12 12 11 11 11 10 10 10
1 2 2 3 2 1 1 2 1 1 1 1 1 1 0 0 1 0 1 0 1 1 1 1 1 1 3 4 6 8 9 8 8 10 11 11 12 12 11 11 11 11 11
1 1 2 2 2 1 1 1 1 1 1 1 1 1 1 1 1 1 0 0 1 0 1 1 1 1 2 4 4 7 9 8 8 8 9 10 11 11 12 11 11 12 12
1 2 2 2 2 1 1 1 1 1 1 1 1 0 0 0 0 0 0 0 0 1 0 1 1 1 2 3 5 8 9 9 8 8 7 7 8 10 11 12 12 12 12
1 2 2 2 2 2 1 1 1 1 1 1 1 1 0 0 0 0 1 0 0 1 0 0 1 1 2 3 3 7 8 9 8 8 7 6 6 6 8 10 11 12 12
1 2 3 2 2 2 2 1 1 1 1 0 1 1 0 0 0 1 1 1 0 0 0 0 0 1 1 2 3 5 5 8 8 8 7 7 6 6 6 7 9 10 11
2 3 3 2 1 1 1 1 1 1 1 0 0 0 0 1 0 0 1 1 2 1 0 1 1 1 1 2 4 3 3 6 8 8 8 7 7 7 7 6 7 7 8
2 1 2 2 2 1 1 1 1 1 1 0 1 1 1 1 0 0 1 1 1 1 0 1 0 1 1 2 4 3 3 6 7 8 8 8 8 7 7 7 7 7 7
1 2 2 2 2 2 1 1 1 1 1 1 0 1 1 1 1 0 1 1 1 1 1 1 1 0 1 1 1 2 3 3 4 8 8 8 8 8 8 8 8 8 7
1 2 2 3 3 2 2 1 1 1 1 1 1 1 0 1 1 0 1 0 0 1 2 1 0 0 0 1 2 2 2 3 2 6 8 9 9 9 9 9 8 8 8
1 1 1 2 2 2 2 1 1 1 1 1 1 1 1 1 1 0 1 0 0 1 1 1 1 0 0 1 1 1 2 2 2 4 7 8 9 9 9 8 8 9 9
2 1 1 2 2 3 3 3 2 1 1 1 1 1 1 2 2 1 1 1 1 1 1 1 1 1 1 1 0 1 1 1 1 2 3 4 6 9 9 9 9 10 10
3 2 1 1 2 2 3 4 4 3 2 2 2 1 2 3 4 2 1 1 1 0 0 1 1 0 1 0 1 1 1 1 2 2 1 2 2 3 5 7 9 10 10
2 3 2 2 2 2 4 5 4 4 2 1 1 1 1 2 2 2 1 1 1 0 0 0 1 1 2 1 1 1 1 0 2 1 1 2 2 2 3 4 7 10 11
0 2 1 1 2 2 3 3 5 3 2 1 1 0 0 2 1 0 2 3 2 3 3 1 1 1 1 1 1 1 1 1 2 2 0 2 2 3 3 4 7 9 10
1 1 1 0 1 2 2 2 4 2 1 1 1 0 1 1 1 1 1 1 1 1 2 2 2 1 1 1 0 1 1 1 2 2 2 2 2 3 3 3 6 8 9
1 1 1 1 1 1 1 1 3 2 1 0 0 1 1 2 3 3 1 1 1 2 2 3 3 3 3 3 2 0 0 1 2 2 1 1 2 2 2 2 4 7 7
1 2 2 1 2 2 2 1 2 1 2 1 1 2 3 3 3 3 1 1 1 2 2 2 2 3 4 4 5 4 3 2 2 2 1 1 1 0 2 2 1 2 3
Wind_Direction
321 333 315 324 308 303 297 286 271 271 267 265 264 238 235 235 238 215 174 182 178 185 195 198 192 184 180 179 176 170 165 161 157 155 152 148 143 138 137 137 136 139 145
333 331 325 329 307 292 285 280 282 278 270 271 274 258 229 230 233 230 181 189 190 191 199 203 198 190 185 183 180 172 168 166 161 161 157 153 147 141 140 141 141 145 148
333 347 354 333 315 323 322 312 307 309 290 277 269 260 238 224 226 236 207 194 190 195 198 203 200 192 186 184 181 175 172 167 165 164 159 156 153 151 147 149 151 151 151
349 2 356 325 322 340 331 304 302 319 305 291 277 257 240 213 229 236 228 202 185 182 194 199 196 189 185 183 181 179 175 171 169 167 163 161 160 159 158 159 157 156 156
348 352 340 329 328 344 342 317 326 298 291 289 280 260 247 200 230 244 230 203 197 171 173 190 190 184 183 181 181 181 179 178 174 171 167 165 166 166 166 165 163 161 161
349 344 331 329 334 350 338 313 318 314 293 288 293 290 259 220 209 223 236 211 189 182 171 172 175 183 182 178 176 176 178 179 178 177 175 172 172 171 170 172 172 171 171
347 334 329 320 327 319 300 306 311 307 295 293 318 317 306 278 227 197 208 200 184 186 162 163 168 165 172 178 176 174 176 179 180 181 181 180 179 178 178 178 180 181 179
354 342 343 335 325 308 315 300 299 313 307 314 4 356 325 347 332 233 193 201 172 158 168 177 175 163 164 163 176 175 173 177 180 183 185 185 185 185 187 187 187 189 189
341 328 328 324 320 324 294 281 271 269 292 302 330 146 153 214 308 291 230 194 159 146 154 178 177 170 166 158 160 172 171 176 182 185 189 190 190 192 193 193 196 198 196
344 335 324 314 307 303 301 298 303 261 245 287 308 318 292 175 148 290 319 292 179 134 132 163 138 149 160 149 156 162 170 176 184 193 195 196 197 199 200 201 203 203 202
311 319 316 303 297 286 292 301 300 275 218 231 264 301 318 328 281 148 214 300 14 27 126 136 120 123 143 139 152 165 172 179 185 192 199 202 202 204 204 204 206 208 204
309 343 326 315 322 334 344 322 303 271 226 240 256 249 207 190 278 101 158 246 254 275 190 138 134 135 146 134 161 163 174 182 187 191 197 201 204 207 207 207 209 210 208
351 348 342 342 354 353 347 338 312 303 244 216 211 239 261 270 172 93 106 177 274 293 315 168 154 156 151 128 145 164 175 180 184 190 193 196 199 203 210 213 213 214 213
10 1 343 1 21 4 341 347 328 310 283 239 255 224 197 73 105 138 152 131 92 319 293 183 115 153 132 137 144 161 178 182 186 187 188 193 199 201 206 217 220 222 222
3 10 348 359 15 358 338 5 352 331 319 134 248 268 149 208 158 131 122 130 138 132 303 208 115 181 146 129 150 165 157 180 189 192 193 196 202 206 210 216 221 223 225
10 355 337 343 360 9 354 30 24 7 8 78 169 184 167 188 114 104 141 152 147 151 201 302 253 184 157 163 168 165 171 180 191 193 197 202 206 209 210 212 217 218 221
344 345 350 353 3 4 5 47 36 37 4 7 48 108 163 136 119 184 131 153 181 146 167 292 1 80 138 145 165 189 186 188 192 200 201 205 209 212 214 213 214 216 218
342 353 12 4 7 11 4 31 31 28 357 1 27 40 36 102 114 88 91 110 145 166 158 169 304 356 51 199 193 200 204 195 190 201 206 209 211 213 215 215 214 215 217
330 6 48 21 359 353 1 8 12 345 343 30 52 59 42 65 70 74 127 122 144 133 126 154 207 306 250 243 212 222 220 205 217 205 208 211 213 214 215 216 216 218 219
340 5 51 37 14 8 6 2 357 6 5 29 52 65 69 72 54 30 43 43 81 105 135 167 195 220 240 259 187 224 260 238 239 218 209 206 211 217 220 220 221 222 222
339 345 27 48 47 40 19 14 354 358 28 31 38 46 80 96 90 81 59 21 23 50 175 179 204 233 247 235 229 239 254 270 259 220 201 218 206 217 221 223 223 223 224
327 333 11 43 54 41 36 29 10 345 351 9 54 51 117 117 128 147 178 182 135 134 294 249 237 229 242 224 213 224 238 273 277 254 161 250 221 226 227 216 216 217 220
297 320 356 43 76 64 36 16 357 332 321 326 350 72 81 93 112 223 251 231 240 250 240 238 259 273 276 266 205 236 247 236 247 246 190 257 236 235 236 229 223 223 222
185 265 294 52 114 90 61 9 339 313 295 318 344 308 127 80 56 7 287 219 205 230 226 216 213 242 274 333 332 234 233 274 286 271 192 237 253 248 246 233 225 222 221
227 240 234 205 168 118 76 4 350 307 296 289 34 32 64 83 32 26 359 309 277 269 249 229 223 231 240 257 246 87 318 295 285 274 221 201 257 273 267 245 230 218 219
241 246 241 206 156 148 142 77 24 333 321 340 58 73 61 66 46 39 9 339 324 310 318 305 265 256 243 238 225 203 200 220 263 277 243 169 251 279 292 273 229 224 233